Hourly Data Report for January 13, 2003

TORONTO CITY
ONTARIO

43°40'00.000" N
79°24'00.000" W
112.50 m
6158355
71508
XTO

Download Data

Hourly Data (January 2003)
Hourly Data Report for January 13, 2003
TIME
LST
Temp Definition
°C
Dew Point Definition
°C
Rel Hum Definition
%
Precip. Amount Definition
mm

Wind Dir Definition
10's deg

Wind Spd Definition
km/h
Visibility Definition
km
Stn Press Definition
kPa
Hmdx Definition


Wind Chill Definition


Weather Definition


00:00 -3.1 -7.7 70     0 LegendMM 100.13     LegendNANA
01:00
02:00 -3.4 -9.7 62     0 LegendMM 99.84     LegendNANA
03:00 -2.6 -8.4 64     0 LegendMM 99.67     LegendNANA
04:00 -2.3 -7.7 66     0 LegendMM 99.50     LegendNANA
05:00 -1.9 -7.5 65     0 LegendMM 99.31     LegendNANA
06:00
07:00 -2.6 -8.6 63     0 LegendMM 99.19     LegendNANA
08:00 -3.0 -6.7 76     0 LegendMM 99.34     LegendNANA
09:00 -4.3 -12.5 53     0 LegendMM 99.48     LegendNANA
10:00 -4.2 -12.2 54     0 LegendMM 99.61     LegendNANA
11:00 -3.9 -12.2 52     0 LegendMM 99.71     LegendNANA
12:00 -4.1 -13.3 49     0 LegendMM 99.73     LegendNANA
13:00 -4.1 -12.3 53     0 LegendMM 99.76     LegendNANA
14:00 -6.3 -9.8 76     0 LegendMM 99.88     LegendNANA
15:00 -6.1 -13.8 54     0 LegendMM 100.03     LegendNANA
16:00 -6.6 -14.0 56     0 LegendMM 100.14     LegendNANA
17:00 -7.3 -14.7 55     0 LegendMM 100.28     LegendNANA
18:00 -7.7 -14.4 59     0 LegendMM 100.38     LegendNANA
19:00 -7.7 -13.4 64     0 LegendMM 100.45     LegendNANA
20:00
21:00 -7.3 -13.2 63     0 LegendMM 100.46     LegendNANA
22:00 -7.3 -12.5 66     0 LegendMM 100.45     LegendNANA
23:00 -7.1 -12.3 66     0 LegendMM 100.47     LegendNANA

Notes on Data Quality.

Legend

  • E = Estimated
  • M = Missing
  • NA = Not Available*
  • [empty] = Indicates an unobserved value
Date modified: